Flag for Germany Weather past 2 weeks in Schleswig, Schleswig-Holstein, Germany

Now
39 °F

Clear.


Feels Like: 36 °F
Forecast: 45 / 59 °F
Wind: 3 mph from East

Location: Schleswig


UV Index: 3 (Moderate)

Visibility: 13 mi


Pressure: 30.14 "Hg

Humidity: 97%

Dew point: 38 °F

Location of SchleswigLocation

Historic Weather in Schleswig

°F

Schleswig temperature yesterday

Maximum temperature yesterday: 50 °F (at 1:00 PM)
Minimum temperature yesterday: 39 °F (at 5:00 AM)
Average temperature yesterday: 45 °F

Past Weeks' High & Low Weather Summary

 TemperatureHumidityPressure
High62 °F (Apr 7, 6:00 PM)100% (Apr 6, 3:00 AM)30.47 "Hg (Apr 6, 3:00 AM)
Low33 °F (Apr 16, 6:00 AM)31% (Apr 16, 12:00 PM)29.60 "Hg (Apr 8, 9:00 AM)
Average47 °F81%29.99 "Hg
* Reported Apr 4 4:00 AM — Apr 19 4:00 AM, Schleswig, Weather by CustomWeather, © 2014

Note: Actual official high and low records may vary slightly from our data, if they occured in-between our weather recording intervals... More about our weather records

Advertising

Historic Weather Conditions — Data for Previous 24 hours

 ConditionsComfort  
Time TempWeatherWind HumidityBarometerVisibility
4:00 AM
Apr 19
39 °FClear.3 mph94%30.14 "Hg12 mi
3:00 AM40 °FClear.3 mph97%30.12 "Hg9 mi
2:00 AM40 °FClear.3 mph96%30.11 "Hg9 mi
1:00 AM40 °FClear.3 mph95%30.09 "Hg11 mi
12:00 AM41 °FClear.3 mph94%30.07 "Hg16 mi
11:00 PM
Apr 18
42 °FPassing clouds.3 mph92%30.03 "Hg19 mi
10:00 PM43 °FPassing clouds.3 mph87%30.01 "Hg19 mi
9:00 PM45 °FPassing clouds.5 mph83%29.98 "Hg19 mi
8:00 PM45 °FOvercast.5 mph79%29.96 "Hg19 mi
7:00 PM46 °FOvercast.5 mph78%29.93 "Hg19 mi
6:00 PM45 °FOvercast.2 mph81%29.92 "Hg19 mi
5:00 PM48 °FOvercast.3 mph72%29.90 "Hg19 mi
4:00 PM49 °FOvercast.5 mph66%29.89 "Hg19 mi
3:00 PM50 °FOvercast.6 mph64%29.87 "Hg19 mi
2:00 PM50 °FOvercast.6 mph65%29.85 "Hg19 mi
1:00 PM50 °FPartly sunny.6 mph65%29.83 "Hg19 mi
12:00 PM49 °FOvercast.7 mph70%29.81 "Hg19 mi
11:00 AM48 °FPartly sunny.7 mph73%29.79 "Hg19 mi
10:00 AM45 °FOvercast.6 mph83%29.78 "Hg19 mi
9:00 AM44 °FOvercast.5 mph89%29.77 "Hg19 mi
8:00 AM43 °FOvercast.6 mph96%29.75 "Hg16 mi
7:00 AM41 °FOvercast.3 mph96%29.74 "Hg19 mi
6:00 AM41 °FLight rain. Overcast.5 mph97%29.72 "Hg6 mi
5:00 AM39 °FPassing clouds.3 mph94%29.71 "Hg19 mi
Weather by CustomWeather, © 2014

See weather overview